Location: Unspecified
(0.0000°N, 0.0000°E)
Time: 00:37:40
(UTC+02:00)

Cosmos 1733 Rocket - Visible Passes

Search period start: 20 August 2017 00:00
Search period end: 30 August 2017 00:00
Orbit: 605 x 628 km, 82.5° (Epoch: 19 August)

Date Brightness Start Highest point End Pass type
(mag) Time Alt. Az. Time Alt. Az. Time Alt. Az.
20 Aug 3.9 07:32:11 10° N 07:36:31 56° E 07:40:50 10° SSE visible
22 Aug 6.6 06:30:42 10° ENE 06:31:45 11° E 06:32:48 10° E visible
23 Aug 5.6 06:44:35 10° NNE 06:48:08 24° E 06:51:40 10° SE visible
24 Aug 3.9 07:00:13 10° N 07:04:30 53° E 07:08:48 10° SSE visible
25 Aug 3.0 07:16:31 10° NNW 07:20:53 66° W 07:25:14 10° S visible
26 Aug 6.5 05:59:18 10° E 05:59:45 10° E 06:00:11 10° E visible
26 Aug 3.9 07:33:27 10° NNW 07:37:15 29° W 07:41:03 10° SSW visible
27 Aug 5.5 06:12:40 10° NE 06:16:08 23° E 06:19:35 10° SE visible
28 Aug 3.9 06:28:15 10° N 06:32:30 50° E 06:36:45 10° SSE visible
29 Aug 2.9 06:44:30 10° N 06:48:53 70° W 06:53:14 10° S visible
